Weather in Krasnoe

Russia / Voronezh Oblast     51°10′07″N   41°28′31″E
temp.,
°C
wind,
m/s
gust,
m/s
humid.,
%
clouds,
%
prec.,
mm/h
press.,
hPa
HPBL,
m
21 january, fri
fri2100:00−15s399734 0.0 1017137
03:00−15sse3798100 0.0 101689
06:00−13sse51397100 0.0 1014273
09:00−9sse71691100 0.1 1012468
12:00−7sse92094100 1.1 1009662
15:00−4sse8169298 1.5 1007656
18:00−1s71493100 0.2 1006776
21:00−3sw6128916 1.1 1008394
22 january, sat
sat2200:00−9s38955 0.0 101092
03:00−11s359864 0.0 101047
06:00−13s229973 0.0 101010
09:00−12s379869 0.0 101289
12:00−6ssw489376 0.0 1013292
15:00−6ssw379318 0.0 1014298
18:00−13s229866 0.0 101613
21:00−15s2210088 0.0 101810
23 january, sun
sun2300:00−16s2210097 0.0 10199
03:00−14se11100100 0.0 102014
06:00−12e22100100 0.0 102132
09:00−10e2397100 0.1 102381
12:00−5ne3693100 0.0 1023227
15:00−4ne51094100 0.1 1024437
18:00−3ne71396100 1.0 1024527
21:00−2ene61297100 2.1 1024535
24 january, mon
mon2400:00−3e61189100 0.7 1026479
03:00−6ene61190100 0.7 1027335
06:00−7ene61291100 0.0 1027340
09:00−8ene51191100 0.0 1029348
12:00−6e51089100 0.0 1029438
15:00−6e5109163 0.0 1029439
18:00−8ene41092100 0.0 1030226
21:00−9e51092100 0.0 1030271
25 january, tue
tue2500:00−12ene4896100 0.0 1030129
03:00−11e41095100 0.0 1029198
06:00−11e4993100 0.0 1028194
09:00−11e4994100 0.0 1028200
12:00−8ese589283 0.0 1027285
15:00−7ese479490 0.0 1026318
18:00−10ese389782 0.1 1026155
21:00−10se369780 0.2 1025131